Time,TemperatureF,DewpointF,PressureIn,WindDirection,WindDirectionDegrees,WindSpeedMPH,WindSpeedGustMPH,Humidity,HourlyPrecipIn,Conditions,Clouds,dailyrainin,SolarRadiationWatts/m^2,SoftwareType,DateUTC
2013-02-17 00:00:00,49.3,46.0,30.05,SSE,148,3.0,5.0,89,0.00,,,0.00,0,weatherlink.com 1.10,2013-02-17 08:00:00,
2013-02-17 00:15:00,49.0,46.0,30.05,SSE,157,3.0,6.0,89,0.00,,,0.00,0,weatherlink.com 1.10,2013-02-17 08:15:00,
2013-02-17 00:30:00,48.7,46.0,30.05,SE,141,2.0,5.0,90,0.00,,,0.00,0,weatherlink.com 1.10,2013-02-17 08:30:00,
2013-02-17 00:45:00,49.0,46.0,30.05,SE,140,3.0,7.0,90,0.00,,,0.00,0,weatherlink.com 1.10,2013-02-17 08:45:00,
2013-02-17 01:00:00,49.1,46.0,30.05,SE,140,5.0,8.0,90,0.00,,,0.00,0,weatherlink.com 1.10,2013-02-17 09:00:00,
2013-02-17 01:15:00,48.6,46.0,30.05,SSE,147,3.0,8.0,90,0.00,,,0.00,0,weatherlink.com 1.10,2013-02-17 09:15:00,
2013-02-17 01:30:00,48.5,46.0,30.05,SE,143,5.0,8.0,92,0.00,,,0.00,0,weatherlink.com 1.10,2013-02-17 09:30:00,
2013-02-17 01:45:00,48.3,46.0,30.04,SE,140,4.0,7.0,91,0.00,,,0.00,0,weatherlink.com 1.10,2013-02-17 09:45:00,
2013-02-17 02:00:00,47.9,46.0,30.04,SSE,159,5.0,7.0,91,0.00,,,0.00,0,weatherlink.com 1.10,2013-02-17 10:00:00,
2013-02-17 02:15:00,47.7,46.0,30.04,SE,138,3.0,5.0,92,0.00,,,0.00,0,weatherlink.com 1.10,2013-02-17 10:15:00,
2013-02-17 02:30:00,48.0,46.0,30.04,SE,135,5.0,8.0,92,0.00,,,0.00,0,weatherlink.com 1.10,2013-02-17 10:30:00,
2013-02-17 02:45:00,48.1,46.0,30.03,SE,146,4.0,8.0,92,0.00,,,0.00,0,weatherlink.com 1.10,2013-02-17 10:45:00,
2013-02-17 03:00:00,48.0,46.0,30.02,SE,142,3.0,9.0,91,0.00,,,0.00,0,weatherlink.com 1.10,2013-02-17 11:00:00,
2013-02-17 03:15:00,47.8,45.0,30.02,SSE,149,2.0,5.0,91,0.00,,,0.00,0,weatherlink.com 1.10,2013-02-17 11:15:00,
2013-02-17 03:30:00,47.2,45.0,30.02,SSE,155,1.0,4.0,91,0.00,,,0.00,0,weatherlink.com 1.10,2013-02-17 11:30:00,
2013-02-17 03:45:00,47.5,45.0,30.02,SE,136,4.0,7.0,92,0.00,,,0.00,0,weatherlink.com 1.10,2013-02-17 11:45:00,
2013-02-17 04:00:00,47.4,45.0,30.01,SE,141,2.0,5.0,91,0.00,,,0.00,0,weatherlink.com 1.10,2013-02-17 12:00:00,
2013-02-17 04:15:00,47.1,45.0,30.01,SSE,149,2.0,4.0,91,0.00,,,0.00,0,weatherlink.com 1.10,2013-02-17 12:15:00,
2013-02-17 04:30:00,46.7,44.0,30.01,SSE,148,1.0,3.0,91,0.00,,,0.00,0,weatherlink.com 1.10,2013-02-17 12:30:00,
2013-02-17 04:45:00,46.8,44.0,30.01,SE,137,6.0,7.0,91,0.00,,,0.00,0,weatherlink.com 1.10,2013-02-17 12:45:00,
2013-02-17 05:00:00,47.1,45.0,30.02,SE,136,2.0,8.0,91,0.00,,,0.00,0,weatherlink.com 1.10,2013-02-17 13:00:00,
2013-02-17 05:15:00,47.3,45.0,30.02,SE,142,4.0,8.0,92,0.00,,,0.00,0,weatherlink.com 1.10,2013-02-17 13:15:00,
2013-02-17 05:30:00,47.3,45.0,30.02,SE,140,3.0,7.0,92,0.00,,,0.00,0,weatherlink.com 1.10,2013-02-17 13:30:00,
2013-02-17 05:45:00,47.3,45.0,30.02,SE,146,2.0,8.0,91,0.00,,,0.00,0,weatherlink.com 1.10,2013-02-17 13:45:00,
2013-02-17 06:00:00,47.0,45.0,30.03,SSE,153,2.0,4.0,92,0.00,,,0.00,0,weatherlink.com 1.10,2013-02-17 14:00:00,
2013-02-17 06:15:00,46.9,45.0,30.03,SE,146,2.0,5.0,92,0.00,,,0.00,0,weatherlink.com 1.10,2013-02-17 14:15:00,
2013-02-17 06:30:00,46.8,44.0,30.02,SE,146,2.0,5.0,91,0.00,,,0.00,0,weatherlink.com 1.10,2013-02-17 14:30:00,
2013-02-17 06:45:00,46.5,44.0,30.03,SE,146,1.0,3.0,91,0.00,,,0.00,0,weatherlink.com 1.10,2013-02-17 14:45:00,
2013-02-17 07:01:00,46.5,44.0,30.03,SE,145,1.0,2.0,91,0.00,,,0.00,7,weatherlink.com 1.10,2013-02-17 15:01:00,
2013-02-17 07:16:00,46.5,44.0,30.03,SE,145,1.0,3.0,91,0.00,,,0.00,18,weatherlink.com 1.10,2013-02-17 15:16:00,
2013-02-17 07:31:00,46.6,44.0,30.04,SE,146,1.0,3.0,91,0.00,,,0.00,30,weatherlink.com 1.10,2013-02-17 15:31:00,
2013-02-17 07:46:00,47.3,45.0,30.04,SE,146,1.0,2.0,91,0.00,,,0.00,91,weatherlink.com 1.10,2013-02-17 15:46:00,
2013-02-17 08:01:00,48.8,46.0,30.04,SE,146,1.0,3.0,89,0.00,,,0.00,134,weatherlink.com 1.10,2013-02-17 16:01:00,
2013-02-17 08:16:00,50.0,46.0,30.05,SE,142,1.0,5.0,85,0.00,,,0.00,181,weatherlink.com 1.10,2013-02-17 16:16:00,
2013-02-17 08:31:00,51.1,46.0,30.05,South,171,2.0,5.0,83,0.00,,,0.00,232,weatherlink.com 1.10,2013-02-17 16:31:00,
2013-02-17 08:46:00,51.2,46.0,30.05,South,175,2.0,5.0,83,0.00,,,0.00,281,weatherlink.com 1.10,2013-02-17 16:46:00,
2013-02-17 09:01:00,51.4,46.0,30.05,SE,140,3.0,6.0,83,0.00,,,0.00,334,weatherlink.com 1.10,2013-02-17 17:01:00,
2013-02-17 09:16:00,52.3,47.0,30.05,SE,142,3.0,5.0,82,0.00,,,0.00,388,weatherlink.com 1.10,2013-02-17 17:16:00,
2013-02-17 09:31:00,53.5,47.0,30.06,SSE,163,2.0,4.0,79,0.00,,,0.00,441,weatherlink.com 1.10,2013-02-17 17:31:00,
2013-02-17 09:46:00,54.3,47.0,30.05,SSE,149,2.0,4.0,77,0.00,,,0.00,364,weatherlink.com 1.10,2013-02-17 17:46:00,
2013-02-17 10:01:00,55.0,48.0,30.05,SW,216,0.0,5.0,76,0.00,,,0.00,436,weatherlink.com 1.10,2013-02-17 18:01:00,
2013-02-17 10:16:00,56.0,48.0,30.05,SSE,167,1.0,4.0,74,0.00,,,0.00,434,weatherlink.com 1.10,2013-02-17 18:16:00,
2013-02-17 10:31:00,56.9,48.0,30.05,SSW,207,3.0,3.0,73,0.00,,,0.00,378,weatherlink.com 1.10,2013-02-17 18:31:00,
2013-02-17 10:46:00,57.9,48.0,30.05,SSW,196,1.0,4.0,69,0.00,,,0.00,473,weatherlink.com 1.10,2013-02-17 18:46:00,
2013-02-17 11:01:00,57.3,48.0,30.05,SSE,148,1.0,5.0,71,0.00,,,0.00,487,weatherlink.com 1.10,2013-02-17 19:01:00,
2013-02-17 11:16:00,56.8,48.0,30.05,SSE,154,3.0,6.0,72,0.00,,,0.00,613,weatherlink.com 1.10,2013-02-17 19:16:00,
2013-02-17 11:31:00,57.0,48.0,30.05,SSW,196,2.0,4.0,72,0.00,,,0.00,594,weatherlink.com 1.10,2013-02-17 19:31:00,
2013-02-17 11:46:00,57.8,48.0,30.05,SSE,151,1.0,4.0,69,0.00,,,0.00,603,weatherlink.com 1.10,2013-02-17 19:46:00,
2013-02-17 12:02:00,57.8,48.0,30.04,SW,227,0.0,3.0,70,0.00,,,0.00,490,weatherlink.com 1.10,2013-02-17 20:02:00,
2013-02-17 12:17:00,58.5,48.0,30.03,SW,216,0.0,4.0,68,0.00,,,0.00,652,weatherlink.com 1.10,2013-02-17 20:17:00,
2013-02-17 12:32:00,58.7,48.0,30.02,South,172,2.0,5.0,67,0.00,,,0.00,686,weatherlink.com 1.10,2013-02-17 20:32:00,
2013-02-17 12:47:00,58.2,46.0,30.02,SSE,157,2.0,5.0,65,0.00,,,0.00,686,weatherlink.com 1.10,2013-02-17 20:47:00,
2013-02-17 13:02:00,58.5,47.0,30.01,South,173,3.0,5.0,66,0.00,,,0.00,541,weatherlink.com 1.10,2013-02-17 21:02:00,
2013-02-17 13:17:00,58.2,47.0,30.01,South,186,2.0,5.0,66,0.00,,,0.00,696,weatherlink.com 1.10,2013-02-17 21:17:00,
2013-02-17 13:32:00,59.1,47.0,30.00,SSW,200,3.0,6.0,65,0.00,,,0.00,373,weatherlink.com 1.10,2013-02-17 21:32:00,
2013-02-17 13:47:00,59.8,47.0,30.00,SE,144,3.0,5.0,64,0.00,,,0.00,661,weatherlink.com 1.10,2013-02-17 21:47:00,
2013-02-17 14:02:00,59.8,47.0,29.99,SSE,151,4.0,6.0,62,0.00,,,0.00,635,weatherlink.com 1.10,2013-02-17 22:02:00,
2013-02-17 14:17:00,60.8,47.0,29.99,SSE,150,2.0,5.0,60,0.00,,,0.00,612,weatherlink.com 1.10,2013-02-17 22:17:00,
2013-02-17 14:32:00,59.9,46.0,29.99,SSE,158,1.0,5.0,61,0.00,,,0.00,584,weatherlink.com 1.10,2013-02-17 22:32:00,
2013-02-17 14:47:00,59.5,45.0,29.99,SSE,168,4.0,6.0,60,0.00,,,0.00,550,weatherlink.com 1.10,2013-02-17 22:47:00,
2013-02-17 15:02:00,59.6,45.0,29.99,SSE,161,1.0,7.0,60,0.00,,,0.00,513,weatherlink.com 1.10,2013-02-17 23:02:00,
2013-02-17 15:17:00,59.5,45.0,29.98,SW,225,3.0,5.0,59,0.00,,,0.00,476,weatherlink.com 1.10,2013-02-17 23:17:00,
2013-02-17 15:32:00,60.0,44.0,29.98,SE,142,5.0,5.0,56,0.00,,,0.00,432,weatherlink.com 1.10,2013-02-17 23:32:00,
2013-02-17 15:47:00,59.6,44.0,29.98,South,169,4.0,6.0,57,0.00,,,0.00,387,weatherlink.com 1.10,2013-02-17 23:47:00,
2013-02-17 16:02:00,59.0,44.0,29.98,SE,131,4.0,7.0,57,0.00,,,0.00,341,weatherlink.com 1.10,2013-02-18 00:02:00,
2013-02-17 16:17:00,58.7,44.0,29.97,SE,142,6.0,8.0,59,0.00,,,0.00,294,weatherlink.com 1.10,2013-02-18 00:17:00,
2013-02-17 16:32:00,58.4,43.0,29.97,South,178,3.0,7.0,58,0.00,,,0.00,236,weatherlink.com 1.10,2013-02-18 00:32:00,
2013-02-17 16:47:00,57.7,44.0,29.97,SSE,148,3.0,8.0,61,0.00,,,0.00,171,weatherlink.com 1.10,2013-02-18 00:47:00,
2013-02-17 17:02:00,56.9,45.0,29.97,SSE,151,2.0,6.0,64,0.00,,,0.00,107,weatherlink.com 1.10,2013-02-18 01:02:00,
2013-02-17 17:17:00,55.8,44.0,29.97,SSE,158,4.0,8.0,66,0.00,,,0.00,56,weatherlink.com 1.10,2013-02-18 01:17:00,
2013-02-17 17:32:00,54.8,44.0,29.97,SSE,161,4.0,7.0,68,0.00,,,0.00,21,weatherlink.com 1.10,2013-02-18 01:32:00,
2013-02-17 17:47:00,53.5,45.0,29.98,SSE,150,3.0,8.0,73,0.00,,,0.00,7,weatherlink.com 1.10,2013-02-18 01:47:00,
2013-02-17 18:02:00,52.8,45.0,29.98,SSE,148,3.0,7.0,75,0.00,,,0.00,0,weatherlink.com 1.10,2013-02-18 02:02:00,
2013-02-17 18:17:00,52.1,45.0,29.98,SE,145,1.0,9.0,77,0.00,,,0.00,0,weatherlink.com 1.10,2013-02-18 02:17:00,
2013-02-17 18:32:00,51.7,45.0,29.98,SSE,157,2.0,7.0,78,0.00,,,0.00,0,weatherlink.com 1.10,2013-02-18 02:32:00,
2013-02-17 18:47:00,51.3,45.0,29.98,SE,146,4.0,6.0,78,0.00,,,0.00,0,weatherlink.com 1.10,2013-02-18 02:47:00,
2013-02-17 19:02:00,51.1,44.0,29.98,SE,144,3.0,5.0,78,0.00,,,0.00,0,weatherlink.com 1.10,2013-02-18 03:02:00,
2013-02-17 19:17:00,50.8,45.0,29.98,SSE,151,2.0,6.0,81,0.00,,,0.00,0,weatherlink.com 1.10,2013-02-18 03:17:00,
2013-02-17 19:32:00,50.5,45.0,29.99,SE,138,2.0,6.0,82,0.00,,,0.00,0,weatherlink.com 1.10,2013-02-18 03:32:00,
2013-02-17 19:47:00,50.3,45.0,29.99,SSE,151,2.0,5.0,82,0.00,,,0.00,0,weatherlink.com 1.10,2013-02-18 03:47:00,
2013-02-17 20:02:00,50.0,45.0,29.99,SSE,153,4.0,4.0,83,0.00,,,0.00,0,weatherlink.com 1.10,2013-02-18 04:02:00,
2013-02-17 20:17:00,49.7,45.0,29.99,SE,145,2.0,4.0,85,0.00,,,0.00,0,weatherlink.com 1.10,2013-02-18 04:17:00,
2013-02-17 20:32:00,49.5,45.0,29.99,SSE,159,1.0,4.0,84,0.00,,,0.00,0,weatherlink.com 1.10,2013-02-18 04:32:00,
2013-02-17 20:47:00,49.4,45.0,29.99,SE,146,2.0,4.0,84,0.00,,,0.00,0,weatherlink.com 1.10,2013-02-18 04:47:00,
2013-02-17 21:02:00,49.2,45.0,29.99,SE,138,2.0,4.0,85,0.00,,,0.00,0,weatherlink.com 1.10,2013-02-18 05:02:00,
2013-02-17 21:17:00,49.1,45.0,30.00,SSE,148,1.0,3.0,85,0.00,,,0.00,0,weatherlink.com 1.10,2013-02-18 05:17:00,
2013-02-17 21:32:00,49.0,45.0,30.00,SE,146,2.0,4.0,85,0.00,,,0.00,0,weatherlink.com 1.10,2013-02-18 05:32:00,
2013-02-17 21:47:00,48.9,45.0,30.00,SE,142,1.0,5.0,85,0.00,,,0.00,0,weatherlink.com 1.10,2013-02-18 05:47:00,
2013-02-17 22:02:00,48.7,45.0,30.00,SE,143,1.0,4.0,86,0.00,,,0.00,0,weatherlink.com 1.10,2013-02-18 06:02:00,
2013-02-17 22:17:00,48.5,45.0,30.00,SE,140,2.0,4.0,86,0.00,,,0.00,0,weatherlink.com 1.10,2013-02-18 06:17:00,
2013-02-17 22:32:00,48.4,45.0,30.01,SE,142,2.0,4.0,87,0.00,,,0.00,0,weatherlink.com 1.10,2013-02-18 06:32:00,
2013-02-17 22:47:00,48.1,44.0,30.01,SE,144,2.0,3.0,87,0.00,,,0.00,0,weatherlink.com 1.10,2013-02-18 06:47:00,
2013-02-17 23:02:00,48.1,44.0,30.01,SE,136,2.0,4.0,87,0.00,,,0.00,0,weatherlink.com 1.10,2013-02-18 07:02:00,
2013-02-17 23:17:00,47.9,44.0,30.01,SE,145,2.0,4.0,87,0.00,,,0.00,0,weatherlink.com 1.10,2013-02-18 07:17:00,
2013-02-17 23:32:00,47.8,44.0,30.01,SE,140,3.0,4.0,87,0.00,,,0.00,0,weatherlink.com 1.10,2013-02-18 07:32:00,
2013-02-17 23:47:00,47.8,44.0,30.00,SE,144,2.0,6.0,86,0.00,,,0.00,0,weatherlink.com 1.10,2013-02-18 07:47:00,